OIMC  Sarakhs Airport

Add Bookmark

Sarakhs, Iran

Status IATA
Operational CKT
Latitude Longitude
36° 30' 4" N 61° 3' 53" E
36.501202 61.064899
Local (DST + 5) UTC (GMT + 4)
Aug 2, 2014 01:03 Aug 2, 2014 08:33
Sunrise-Sunset Local UTC
Begin Civil Twilight 05:03 00:33
Sunrise 05:31 01:01
Sunset 07:32 15:02
End Civil Twilight 08:00 15:30

Current Weather

METAR Observed VFR
OIMC 020800Z 21008KT CAVOK 36/M02 Q1010 Sat, Aug 2, 2014 @ 08:00 UTC
(33 Minutes ago)
Visual Flight Rules

Decoded METAR

Wind Visibility Clouds Conditions
210° at 8 knots (15 kph) 10 km or more
  • Clear skies
  • No significant weather
Temperatures Readings Precipitation
Current Temp 36°C (97°F)
Dewpoint -2°C (28°F)
Humidity 9%
Altimeter 29.82"Hg
Sea Level Pressure 1010mb
Field Elevation 944.88'
None Recorded

Additional weather within a 185.2km radius of OIMC

Map ICAO Location
OIMM 130.8km W (257°)
UTAM 144.5km N (030°)

24 Hour Weather History

Loading
-

24 Hour Weather Graphs

Loading
-

CheckWX.com is intended as a tool to help pilots better visualize weather data. It is not intended as a substitute for an official weather briefing obtained from a Flight Service Station. CheckWX.com does not meet the FAA requirements for an official pre-flight weather briefing. Therefore, it's important that pilots still call and obtain an official FSS pre-flight weather briefing.